Temp
29 25 24 26 25 27 28 28 29 29 30 28 27 26 27 26 27 26 26 27 27 27 27 27 26 25 25 24 24 23 23 23 22 22 22 22 21 20 20 20 20 20 20 20
25 24 25 27 28 28 27 27 27 29 28 27 26 28 28 26 26 27 26 27 27 27 27 27 26 25 25 25 24 23 23 23 22 22 22 22 21 20 20 20 20 20 20 20
23 26 28 27 27 27 27 26 26 28 29 28 28 27 25 24 23 25 27 28 27 28 27 27 26 26 25 25 25 24 23 23 22 22 21 21 21 20 20 20 20 20 20 19
25 28 28 27 27 27 24 29 30 30 27 25 28 23 24 21 22 23 26 28 28 28 27 27 26 26 25 25 25 25 23 23 23 22 21 21 21 21 20 20 20 20 19 19
26 28 27 27 28 28 28 29 30 30 26 25 27 24 24 23 23 22 24 27 27 28 27 27 27 26 26 26 25 25 24 24 23 22 22 21 21 20 20 20 20 20 19 19
26 30 28 28 30 30 31 29 25 23 23 24 26 25 22 21 23 23 24 26 27 26 26 27 27 27 26 25 25 25 25 24 23 22 22 21 21 20 20 20 20 20 19 19
25 27 27 30 30 27 26 22 21 24 22 23 23 26 24 25 23 26 27 26 25 25 25 26 26 26 26 26 25 25 25 24 23 22 22 22 21 20 20 21 20 20 20 20
24 24 28 29 28 27 27 23 20 24 22 23 23 24 25 25 27 27 27 25 26 25 25 26 27 25 25 27 26 26 25 24 23 22 22 21 21 21 21 21 20 20 20 20
23 25 28 29 29 27 28 25 23 23 22 21 22 25 25 26 26 27 26 23 25 26 29 27 27 26 25 26 26 27 26 25 24 23 22 21 21 21 21 21 20 20 19 19
26 26 27 29 31 29 27 26 25 19 25 26 22 25 24 25 25 25 24 26 26 29 31 29 28 27 27 26 27 27 26 26 25 24 23 22 22 21 21 20 20 19 19 19
26 24 26 29 28 26 26 26 23 21 20 22 22 23 22 24 23 23 24 28 29 30 28 29 30 29 26 25 26 27 27 26 25 24 24 23 22 21 20 20 20 20 19 19
27 21 25 26 27 27 25 25 21 20 25 20 20 23 26 24 24 25 24 29 28 28 25 25 27 28 25 26 26 27 27 26 25 25 24 23 22 21 20 20 21 20 19 18
27 21 21 23 26 27 30 28 24 20 18 24 22 23 26 24 25 28 26 26 28 28 27 25 25 25 26 26 26 27 27 26 25 24 24 24 21 21 20 19 19 18 17 17
26 20 22 22 24 25 27 30 30 22 22 22 21 26 26 26 26 25 26 28 29 32 28 27 27 26 27 27 27 27 26 26 25 24 23 23 21 20 19 19 19 18 17 17
24 24 26 25 25 27 29 28 26 24 25 22 23 25 25 24 24 24 27 30 30 31 31 29 27 26 27 26 26 27 26 26 25 24 23 22 21 20 19 18 19 17 18 18
22 24 25 25 26 26 27 27 25 26 25 24 24 23 22 25 27 28 26 26 27 29 30 30 28 26 26 27 28 26 26 25 24 23 22 22 21 20 20 20 19 18 19 19
23 22 21 24 23 25 24 25 25 22 21 23 21 20 21 23 24 24 27 29 29 30 31 30 29 27 26 27 27 26 26 25 23 22 22 21 20 20 21 20 18 18 18 17
23 22 19 22 22 24 25 23 23 20 18 19 20 19 19 19 23 25 26 26 27 29 29 29 28 27 27 27 27 26 25 24 23 22 21 21 20 21 20 19 18 18 18 17
22 19 22 22 20 23 25 24 24 25 19 17 19 20 21 24 26 27 26 27 26 26 30 30 29 29 28 27 26 25 24 23 22 21 21 21 21 20 19 18 18 17 18 17
20 19 21 19 23 23 23 24 25 24 20 17 18 20 21 24 20 20 25 26 27 26 26 28 28 28 27 26 25 24 23 22 21 21 21 21 20 20 19 18 17 18 18 17
20 19 20 19 21 21 23 23 25 23 20 20 20 22 21 22 24 26 26 26 25 27 25 25 26 27 25 25 23 23 22 21 21 20 20 20 20 19 18 17 17 17 17 17
21 20 20 19 21 22 23 23 24 21 21 22 21 23 24 24 25 26 26 26 25 26 27 24 24 24 24 23 22 21 20 20 20 19 18 20 19 18 18 16 16 16 17 16
21 20 20 20 19 19 22 24 25 24 23 22 22 23 23 24 24 23 24 25 26 26 25 23 25 25 24 22 22 21 20 20 19 18 18 19 18 17 16 16 16 16 16 16
21 23 20 20 21 20 22 23 23 23 23 23 23 23 22 22 23 24 25 25 25 25 25 25 24 24 23 23 21 21 21 21 19 18 18 18 18 16 15 15 15 15 16 16
20 21 20 17 18 20 21 23 24 24 24 24 24 23 24 25 24 25 24 24 23 23 23 24 24 24 23 23 21 21 20 20 18 18 18 17 16 15 15 14 14 16 16 16
20 19 18 18 20 20 22 23 23 23 24 24 24 24 24 24 24 24 24 23 23 23 22 22 23 23 22 22 20 20 19 19 18 18 17 17 15 15 14 14 14 14 15 15
Height
1486 1497 1507 1499 1495 1495 1500 1504 1503 1495 1492 1499 1498 1498 1493 1498 1498 1498 1499 1502 1505 1507 1511 1514 1519 1523 1528 1533 1535 1537 1541 1544 1546 1548 1549 1551 1553 1553 1553 1555 1555 1554 1554 1553
1493 1502 1491 1488 1488 1492 1495 1504 1506 1494 1488 1496 1497 1494 1491 1488 1491 1490 1497 1499 1503 1506 1510 1512 1514 1521 1523 1527 1533 1536 1538 1541 1543 1546 1548 1550 1551 1551 1552 1553 1554 1553 1551 1551
1500 1489 1485 1490 1490 1496 1494 1503 1501 1497 1491 1484 1488 1502 1495 1493 1492 1490 1491 1492 1492 1500 1503 1509 1511 1515 1520 1523 1528 1533 1535 1539 1541 1544 1547 1548 1549 1550 1550 1551 1552 1552 1551 1550
1492 1479 1485 1488 1492 1489 1509 1478 1484 1485 1496 1516 1487 1531 1501 1500 1497 1492 1487 1478 1484 1492 1501 1503 1509 1514 1517 1519 1524 1529 1532 1536 1539 1542 1544 1545 1547 1547 1548 1550 1551 1550 1550 1549
1489 1480 1484 1490 1485 1478 1487 1472 1475 1479 1497 1503 1497 1514 1502 1497 1496 1493 1484 1478 1484 1491 1495 1499 1502 1508 1512 1517 1521 1525 1529 1532 1535 1538 1541 1543 1545 1546 1548 1549 1549 1549 1549 1549
1479 1470 1472 1473 1469 1469 1464 1471 1482 1489 1500 1521 1498 1506 1512 1502 1486 1484 1478 1480 1487 1490 1494 1496 1502 1507 1511 1514 1517 1521 1523 1527 1531 1534 1537 1540 1542 1544 1545 1547 1547 1547 1548 1549
1481 1473 1466 1465 1471 1468 1472 1496 1534 1529 1535 1530 1501 1503 1493 1471 1469 1466 1471 1486 1486 1489 1493 1494 1497 1499 1504 1509 1512 1515 1519 1523 1527 1531 1534 1536 1539 1542 1543 1544 1545 1545 1547 1548
1502 1506 1466 1458 1466 1476 1476 1492 1530 1537 1542 1525 1500 1511 1484 1464 1467 1473 1482 1483 1487 1491 1484 1485 1485 1491 1498 1500 1505 1509 1514 1519 1523 1527 1530 1533 1535 1538 1540 1541 1543 1544 1545 1548
1500 1492 1455 1452 1454 1462 1475 1491 1485 1508 1513 1529 1512 1490 1468 1461 1469 1471 1476 1478 1479 1481 1484 1489 1486 1483 1490 1494 1498 1503 1510 1515 1518 1522 1526 1529 1532 1534 1535 1538 1541 1543 1545 1547
1474 1492 1463 1456 1454 1458 1466 1469 1500 1517 1524 1524 1520 1501 1499 1473 1473 1474 1472 1472 1473 1472 1463 1467 1476 1481 1484 1488 1493 1500 1506 1510 1514 1518 1522 1525 1528 1531 1534 1538 1540 1541 1543 1544
1467 1481 1478 1461 1468 1475 1474 1481 1489 1501 1515 1529 1535 1513 1472 1468 1464 1471 1470 1466 1466 1461 1462 1467 1473 1477 1484 1487 1488 1494 1501 1506 1510 1514 1518 1521 1523 1527 1531 1534 1536 1539 1541 1543
1461 1483 1492 1478 1458 1455 1461 1472 1486 1515 1507 1514 1519 1506 1460 1461 1460 1466 1467 1464 1463 1465 1469 1470 1475 1477 1482 1482 1485 1491 1497 1502 1506 1508 1513 1517 1521 1524 1527 1533 1536 1538 1542 1542
1457 1487 1509 1494 1469 1459 1460 1462 1471 1484 1496 1499 1519 1505 1458 1455 1462 1460 1465 1466 1465 1464 1464 1468 1475 1477 1476 1477 1482 1487 1494 1499 1504 1506 1509 1514 1519 1522 1524 1532 1538 1538 1539 1531
1454 1482 1495 1512 1496 1479 1474 1459 1457 1479 1501 1503 1500 1478 1463 1461 1460 1458 1458 1460 1459 1453 1458 1464 1468 1472 1472 1476 1479 1485 1492 1498 1500 1504 1508 1512 1518 1527 1529 1530 1529 1533 1535 1522
1459 1481 1475 1475 1475 1468 1465 1468 1469 1478 1479 1498 1487 1480 1467 1462 1461 1456 1456 1456 1455 1455 1457 1459 1464 1467 1470 1473 1477 1485 1491 1495 1498 1503 1507 1512 1521 1520 1517 1527 1530 1533 1534 1531
1461 1480 1472 1480 1471 1469 1471 1469 1471 1469 1474 1477 1475 1477 1465 1461 1459 1465 1463 1459 1458 1456 1455 1456 1460 1464 1465 1467 1473 1481 1488 1493 1496 1501 1505 1511 1515 1518 1522 1524 1526 1529 1532 1532
1469 1476 1488 1492 1480 1475 1491 1477 1475 1483 1482 1476 1493 1489 1470 1466 1463 1462 1458 1456 1456 1453 1453 1453 1454 1457 1461 1466 1472 1478 1484 1490 1495 1498 1501 1507 1510 1513 1517 1522 1524 1527 1529 1530
1470 1477 1487 1496 1488 1512 1485 1472 1471 1485 1491 1486 1482 1479 1480 1475 1469 1466 1463 1456 1457 1453 1453 1454 1455 1458 1462 1467 1472 1476 1480 1485 1490 1494 1499 1503 1507 1511 1513 1518 1522 1525 1528 1530
1459 1476 1488 1499 1509 1490 1478 1474 1476 1475 1494 1486 1481 1474 1472 1466 1462 1458 1461 1459 1460 1457 1455 1456 1457 1459 1462 1465 1468 1472 1476 1480 1485 1491 1496 1501 1504 1509 1512 1516 1519 1524 1527 1529
1462 1466 1482 1499 1501 1507 1481 1470 1468 1467 1498 1482 1478 1474 1473 1468 1475 1469 1460 1459 1462 1462 1458 1456 1457 1459 1461 1463 1467 1473 1475 1478 1483 1488 1493 1497 1500 1505 1510 1514 1518 1522 1525 1528
1478 1479 1487 1495 1496 1488 1471 1468 1465 1489 1495 1476 1474 1471 1474 1476 1470 1465 1463 1462 1462 1464 1463 1459 1458 1458 1460 1464 1469 1471 1475 1476 1481 1488 1491 1494 1499 1503 1506 1511 1515 1519 1522 1527
1473 1483 1486 1489 1493 1495 1466 1468 1474 1472 1467 1470 1473 1472 1469 1470 1468 1466 1463 1462 1459 1464 1465 1464 1464 1463 1462 1464 1466 1472 1472 1475 1477 1482 1487 1494 1499 1502 1504 1508 1512 1517 1521 1524
1477 1468 1476 1478 1481 1466 1463 1462 1462 1464 1466 1469 1470 1470 1470 1469 1466 1465 1463 1459 1456 1459 1461 1463 1461 1460 1461 1461 1462 1466 1472 1471 1473 1479 1484 1490 1496 1500 1503 1506 1510 1514 1518 1521
1463 1458 1468 1472 1469 1466 1464 1463 1463 1464 1467 1469 1470 1468 1467 1466 1464 1462 1460 1457 1453 1455 1456 1455 1454 1455 1455 1457 1457 1462 1465 1467 1474 1478 1481 1487 1493 1496 1502 1506 1510 1513 1516 1520
1467 1462 1466 1473 1468 1466 1465 1463 1463 1465 1465 1466 1466 1465 1462 1459 1460 1458 1455 1452 1451 1454 1454 1452 1448 1452 1453 1453 1451 1460 1464 1467 1472 1476 1480 1485 1489 1494 1497 1503 1507 1510 1514 1518
1464 1466 1471 1472 1462 1464 1463 1463 1464 1464 1464 1464 1463 1460 1459 1457 1456 1455 1452 1450 1452 1451 1450 1451 1448 1449 1443 1446 1451 1456 1458 1469 1473 1475 1477 1480 1486 1492 1497 1501 1504 1507 1511 1515
Wind_Speed
6 4 3 8 8 7 3 4 3 2 9 10 9 11 11 11 15 22 28 31 35 33 29 31 27 30 26 25 29 29 27 22 19 18 13 20 21 14 12 11 9 9 5 7
4 3 10 9 10 9 11 6 5 4 9 6 12 20 15 12 10 24 22 29 31 32 31 33 30 32 30 28 25 29 27 23 20 20 14 13 19 17 14 13 9 8 8 5
7 11 9 8 11 10 13 5 7 9 12 11 11 6 6 7 11 19 23 33 33 35 35 36 34 34 31 30 24 26 27 25 24 19 16 14 17 17 15 13 10 8 7 6
6 16 8 8 9 8 9 12 7 10 6 6 5 5 2 4 2 4 20 34 36 37 34 39 36 36 35 33 27 21 26 27 26 21 19 18 20 18 15 12 10 8 5 9
10 6 6 9 15 9 14 10 3 4 6 3 5 4 5 2 7 10 18 35 27 34 35 39 41 40 40 35 31 25 24 27 27 27 23 19 20 16 13 12 10 7 10 10
10 7 8 9 5 5 4 4 8 5 4 5 3 5 5 6 10 10 23 19 22 20 33 34 40 40 42 39 35 30 27 28 29 28 25 24 20 20 17 14 14 12 13 11
7 9 5 5 3 5 8 7 4 5 4 7 4 2 10 14 10 12 15 13 10 22 20 30 41 46 48 43 41 36 33 31 31 31 28 28 23 21 20 17 14 13 15 13
2 8 5 4 9 7 4 8 6 5 3 6 4 5 6 8 1 7 7 16 11 12 23 36 41 45 45 45 43 38 37 34 32 31 26 29 26 24 22 19 19 15 14 13
5 6 7 11 6 10 3 2 7 4 2 4 3 6 7 3 3 2 5 24 21 22 6 16 39 42 43 46 45 39 39 36 32 28 26 29 29 25 20 18 19 18 17 16
4 3 2 6 4 1 6 4 3 4 1 3 5 3 4 6 5 7 8 15 17 27 37 35 42 36 35 48 48 42 38 36 32 27 26 26 29 29 23 19 17 18 20 18
5 4 8 2 3 7 2 1 5 6 5 4 1 5 7 10 8 9 11 24 29 28 33 40 39 34 27 42 51 44 41 37 34 28 26 26 27 24 24 22 20 16 18 20
4 5 1 7 9 8 6 8 7 5 5 2 4 5 2 9 7 15 22 24 20 15 11 27 40 37 34 43 50 47 42 37 33 29 27 26 25 22 25 20 15 16 18 21
3 2 3 10 13 6 3 5 5 4 3 2 5 5 4 7 8 18 24 16 16 20 22 26 30 34 46 46 48 45 42 37 33 29 29 27 24 23 19 9 8 18 21 29
6 4 6 5 8 5 6 4 1 6 4 2 5 5 6 1 8 3 16 20 24 26 28 33 34 26 39 45 45 44 40 35 31 28 28 27 23 12 12 21 25 20 20 13
5 3 4 4 5 3 1 4 10 7 2 5 7 4 5 9 8 19 26 23 23 22 23 22 30 27 44 42 41 40 37 33 29 25 26 24 17 17 14 24 17 22 14 7
3 0 2 5 7 9 5 7 8 5 2 7 10 5 9 5 5 7 19 23 21 24 27 25 28 31 39 42 40 39 35 32 28 22 20 20 19 18 13 16 20 26 11 9
3 3 3 3 5 6 7 7 9 7 10 2 9 5 14 12 16 20 17 11 4 14 16 17 25 35 41 39 40 36 32 30 28 21 18 22 21 19 13 13 20 18 7 10
4 3 2 2 4 3 5 6 19 14 7 8 4 9 6 9 13 12 20 24 3 12 15 18 25 32 33 33 33 32 31 30 27 25 22 24 23 18 16 17 17 17 7 13
5 5 1 3 3 4 2 4 2 2 1 3 1 4 10 20 9 10 20 27 24 15 15 13 20 26 29 31 33 33 32 30 29 28 27 24 21 16 19 19 18 15 15 17
6 6 4 3 3 5 5 5 5 4 0 8 7 2 4 14 4 5 25 18 22 15 19 21 24 28 30 32 32 31 31 31 32 30 28 27 24 20 18 18 19 16 19 16
2 2 5 3 3 4 3 9 7 5 6 11 8 10 6 1 7 19 19 17 16 17 13 24 27 27 28 29 28 29 29 30 27 26 25 23 21 18 14 21 20 20 21 17
5 5 4 3 3 4 4 4 5 6 8 13 14 15 20 12 9 18 23 23 18 20 17 19 27 27 26 26 25 27 29 27 25 27 25 21 17 17 19 23 23 23 19 17
2 5 4 5 5 4 2 6 8 11 8 9 10 9 14 16 22 19 18 22 19 23 14 11 28 25 29 26 23 25 25 27 29 28 25 20 19 19 19 24 25 24 20 17
5 1 4 3 3 3 7 11 12 12 7 3 8 11 10 19 20 17 20 20 21 19 15 18 22 32 30 29 25 21 25 26 27 27 25 22 20 22 20 20 22 21 20 17
4 5 2 2 3 1 5 11 10 11 9 10 11 12 15 15 14 17 16 16 12 11 15 15 19 28 27 26 26 20 19 21 27 26 24 24 23 24 23 23 21 19 16 13
1 2 3 4 9 4 7 14 14 15 15 13 19 16 14 10 17 18 14 9 10 10 9 12 18 23 27 26 18 18 13 23 24 25 27 27 27 25 25 25 22 20 16 14
Wind_Direction
259 77 211 249 249 236 218 257 227 191 91 353 266 249 233 177 185 179 191 196 199 202 200 196 198 195 193 194 202 210 213 215 213 214 197 191 194 212 224 242 257 314 277 241
350 222 229 241 259 266 276 193 232 191 198 149 261 275 253 182 191 175 186 203 203 200 197 191 190 194 193 197 201 208 213 216 214 219 215 206 200 209 226 237 249 266 267 258
179 234 227 231 270 276 276 195 196 209 182 181 218 245 220 47 106 162 178 202 200 202 191 189 191 197 200 201 208 213 214 216 219 217 208 208 203 212 222 233 237 255 248 225
215 247 226 232 242 221 259 262 201 235 143 225 169 262 50 80 37 242 180 206 201 199 196 192 198 201 208 213 211 214 215 219 220 214 211 205 200 216 228 237 245 265 226 201
239 213 208 232 239 228 240 241 186 134 172 167 193 92 275 203 180 231 224 224 203 196 198 196 204 213 216 215 213 212 211 213 214 214 217 216 217 225 227 239 243 239 202 200
236 250 171 212 250 222 242 45 35 54 52 348 234 121 263 204 199 207 230 221 214 231 204 205 215 217 219 216 215 214 214 214 216 216 216 216 214 224 225 225 218 221 204 202
334 297 281 201 278 339 68 59 1 354 6 233 67 84 235 210 222 211 204 62 243 215 209 207 216 214 220 215 217 217 215 213 215 216 220 217 214 216 225 217 215 213 209 198
159 319 206 207 174 192 207 141 149 204 220 270 332 232 257 243 14 231 71 93 113 172 180 197 212 213 223 219 216 218 217 213 214 213 217 217 218 214 219 220 225 215 216 199
186 270 308 165 163 134 264 126 183 142 84 43 278 306 321 67 86 94 118 117 152 155 161 217 214 216 215 222 219 218 218 216 214 214 213 215 219 219 221 216 209 219 214 207
234 299 290 311 69 329 144 171 53 13 24 311 300 253 237 270 226 195 191 183 182 169 197 220 224 225 226 225 225 218 219 219 214 213 213 214 219 224 230 222 221 225 218 218
175 116 297 22 183 196 317 336 63 115 137 177 224 273 218 212 219 167 188 214 198 217 212 218 222 237 233 225 225 218 215 217 213 212 212 211 214 217 217 219 219 230 219 203
188 134 209 246 260 199 168 200 134 119 248 240 145 264 356 189 217 164 194 204 223 243 270 250 228 230 238 218 219 217 211 215 212 211 210 214 210 207 206 206 230 206 199 196
179 32 32 345 347 21 172 199 152 124 101 199 128 252 233 201 161 191 178 191 223 237 226 212 221 231 220 215 213 213 208 212 212 213 209 214 210 206 212 174 240 222 212 198
82 106 138 184 222 248 302 345 204 104 74 211 221 210 270 194 165 146 162 169 187 203 219 219 220 220 213 211 211 210 207 209 215 216 214 211 208 206 185 192 227 210 213 41
99 126 147 251 258 346 141 56 98 83 154 94 288 262 277 215 187 167 170 176 186 212 225 235 214 219 207 208 207 208 206 208 215 214 215 207 200 200 208 213 231 208 219 272
21 201 112 329 352 11 21 93 87 67 94 112 40 12 323 297 309 167 186 189 202 246 239 236 209 210 206 209 208 205 205 208 210 208 209 199 199 207 202 211 192 199 222 150
56 94 79 288 351 30 22 317 78 77 26 2 45 317 10 7 7 12 358 321 221 170 197 216 224 213 207 205 205 201 205 206 204 200 196 195 200 201 213 209 183 182 176 184
116 85 89 201 31 48 220 84 105 105 60 28 32 22 344 320 324 11 18 33 34 172 175 190 200 200 201 201 203 205 203 203 202 197 193 196 204 213 209 208 207 204 213 179
123 113 80 124 151 265 58 13 305 149 33 294 123 351 338 14 354 29 356 7 10 206 193 197 196 195 194 199 203 200 198 201 199 198 198 199 211 209 197 197 203 199 183 170
71 92 127 96 136 229 222 260 311 109 48 247 261 203 14 9 38 275 340 346 345 346 209 201 203 198 199 198 198 199 199 196 197 198 199 205 199 199 196 197 189 181 174 177
46 28 142 140 183 252 242 282 325 106 230 209 223 268 249 236 248 302 319 310 312 318 274 215 208 207 204 201 198 200 200 196 196 199 204 199 194 200 203 183 182 178 176 186
169 150 192 93 124 225 213 276 144 204 181 211 237 277 297 290 273 301 301 299 296 295 277 250 210 205 209 203 203 205 200 192 185 194 196 200 190 192 189 182 179 181 185 192
23 168 176 156 211 236 148 191 171 181 177 210 239 271 271 277 303 322 325 302 292 287 290 279 223 230 228 208 214 206 197 197 186 193 190 183 188 187 187 188 187 186 191 195
323 155 102 93 275 190 201 190 181 183 201 253 300 317 310 289 279 302 302 304 268 275 268 250 238 228 217 216 202 206 210 205 195 189 181 180 182 176 179 186 191 189 190 194
238 1 94 18 333 3 239 216 207 210 228 266 292 303 326 314 293 312 305 300 271 285 296 277 242 235 229 217 198 201 199 194 184 183 177 176 177 180 176 180 188 187 191 200
71 225 134 219 209 191 238 232 227 224 239 262 297 307 328 306 304 300 307 292 277 281 285 277 256 239 219 203 180 174 173 220 188 180 179 179 181 183 183 187 187 187 189 181